User: anonymous   Login
Location: Unspecified
(0.0000°N, 0.0000°E)
Time: 23:01:35
(UTC+00:00)
Language:

STARLINK-2634 - Orbit

View from above orbital plane
View from above orbital plane
View from above satellite
View from above satellite

Ground track
Ground track

The orbit is defined by the following mean orbital elements,

1 48445U          26145.47183527 +.00000000 +00000-0 +36587-4 0 00006
2 48445  53.1595 180.9953 0001302  88.8707 271.2443 15.31698806    04
Epoch (UTC): 25 May 2026 11:19:26
Eccentricity: 0.0001302
inclination: 53.1595°
perigee height: 470 km
apogee height: 472 km
right ascension of ascending node: 180.9953°
argument of perigee: 88.8707°
revolutions per day: 15.31698806
mean anomaly at epoch: 271.2443°

The dashed part of the orbit path shows where the satellite is in the earth's shadow,  

DLR